Kuiper-00098

operational
NORAD ID: 65137 Int'l Des: 2025-171 Owner: KUIP Country: US Constellation: kuiper
LEOCIRCULAR

Über Kuiper-00098

Beschreibung wird geladen...

Live-Position

3D-Globus wird geladen...

Nächste Überflüge

Höhenverlauf

Altitude vs Time

uPlot chart will show altitude changes over time

Zweizeiliger Elementsatz

1 65137U 25171F 25350.81277170 .00002354 00000-0 33768-3 0 9990
2 65137 51.8983 169.5676 0007873 212.3686 147.6794 14.79943056 19894
Epoch: 16. Dez. 2025 • Age: 17 hours

Aktueller Status

Höhe 636.0 km
Geschwindigkeit 7.55 km/s
Subsatellitenpunkt 47.55°N, 18.42°E
Startdatum 11. Aug. 2025
Alter 0.3 years
Typ internet

Technische Details

Klassifizierung Payload
Masse 490.00 kg
Trockenmasse 490.00 kg
Gesamtmasse 490.00 kg
Länge 1.80 m
Durchmesser 0.70 m
Spannweite 5.00 m
Form Box + 2 pan
Hersteller KUIP
Bus-Typ Kuiper
Phasenstatus In Orbit
Besitzer/Staat KUIP/US

Große Konstellationen

Loading constellations...